| time (UTC) | temp C | wind direction | speed KPH | gust KPH | rain 1hr cm | rain 24hr cm | rain mn cm | humidity % | barometer mb |
| 20260505023131 | 20 | 184 | 8.0 | 9.7 | 0.00 | 0.00 | 0.00 | 66 | 1015.1 |
| 20260505022628 | 20 | 190 | 9.7 | 11.3 | 0.00 | 0.00 | 0.00 | 66 | 1015.4 |
| 20260505022125 | 20 | 180 | 11.3 | 14.5 | 0.00 | 0.00 | 0.00 | 64 | 1015.3 |
| 20260505021621 | 20 | 177 | 9.7 | 12.9 | 0.00 | 0.00 | 0.00 | 65 | 1015.1 |
| 20260505021118 | 20 | 181 | 8.0 | 12.9 | 0.00 | 0.00 | 0.00 | 65 | 1015.4 |
| 20260505020614 | 20 | 168 | 6.4 | 11.3 | 0.00 | 0.00 | 0.00 | 65 | 1015.4 |
| 20260505020110 | 20 | 165 | 6.4 | 9.7 | 0.00 | 0.00 | 0.00 | 65 | 1015.1 |
| 20260505015608 | 20 | 169 | 6.4 | 9.7 | 0.00 | 0.00 | 0.00 | 65 | 1015.3 |
| 20260505015104 | 20 | 166 | 6.4 | 9.7 | 0.00 | 0.00 | 0.00 | 65 | 1015.2 |
| 20260505014601 | 20 | 190 | 6.4 | 11.3 | 0.00 | 0.00 | 0.00 | 65 | 1015.1 |
| 20260505014058 | 20 | 169 | 4.8 | 6.4 | 0.00 | 0.00 | 0.00 | 65 | 1015.1 |
| 20260505013555 | 20 | 162 | 6.4 | 9.7 | 0.00 | 0.00 | 0.00 | 64 | 1015.3 |
| 20260505013052 | 20 | 184 | 6.4 | 11.3 | 0.00 | 0.00 | 0.00 | 64 | 1015.3 |
| 20260505012550 | 20 | 186 | 8.0 | 11.3 | 0.00 | 0.00 | 0.00 | 64 | 1015.1 |
| 20260505012047 | 20 | 172 | 6.4 | 11.3 | 0.00 | 0.00 | 0.00 | 64 | 1015.2 |
| 20260505011542 | 20 | 174 | 6.4 | 9.7 | 0.00 | 0.00 | 0.00 | 64 | 1015.0 |
| 20260505011040 | 20 | 163 | 8.0 | 11.3 | 0.00 | 0.00 | 0.00 | 64 | 1015.4 |
| 20260505010535 | 20 | 187 | 9.7 | 11.3 | 0.00 | 0.00 | 0.00 | 63 | 1015.1 |
| 20260505010032 | 20 | 187 | 6.4 | 6.4 | 0.00 | 0.00 | 0.00 | 64 | 1015.3 |
| 20260505005528 | 21 | 173 | 4.8 | 6.4 | 0.00 | 0.00 | 0.00 | 63 | 1015.1 |
| 20260505005026 | 21 | 176 | 6.4 | 9.7 | 0.00 | 0.00 | 0.00 | 62 | 1015.2 |
| 20260505004523 | 21 | 186 | 6.4 | 9.7 | 0.00 | 0.00 | 0.00 | 62 | 1015.2 |
| 20260505004020 | 21 | 188 | 6.4 | 9.7 | 0.00 | 0.00 | 0.00 | 61 | 1015.1 |
| 20260505003517 | 21 | 181 | 6.4 | 11.3 | 0.00 | 0.00 | 0.00 | 61 | 1015.0 |
| 20260505003015 | 21 | 177 | 9.7 | 11.3 | 0.00 | 0.00 | 0.00 | 60 | 1015.1 |
| 20260505002515 | 21 | 170 | 8.0 | 11.3 | 0.00 | 0.00 | 0.00 | 58 | 1015.0 |
| 20260505002014 | 22 | 186 | 8.0 | 12.9 | 0.00 | 0.00 | 0.00 | 58 | 1015.1 |
| 20260505001511 | 22 | 175 | 9.7 | 12.9 | 0.00 | 0.00 | 0.00 | 57 | 1015.0 |
| 20260505001008 | 22 | 163 | 9.7 | 11.3 | 0.00 | 0.00 | 0.00 | 57 | 1015.2 |
| 20260505000506 | 22 | 178 | 8.0 | 11.3 | 0.00 | 0.00 | 0.00 | 57 | 1015.4 |
| 20260505000003 | 22 | 190 | 9.7 | 12.9 | 0.00 | 0.00 | 0.00 | 55 | 1015.5 |
| 20260504235500 | 23 | 187 | 11.3 | 14.5 | 0.00 | 0.00 | 0.00 | 54 | 1015.4 |
| 20260504234956 | 23 | 200 | 12.9 | 14.5 | 0.00 | 0.00 | 0.00 | 53 | 1015.4 |
| 20260504234453 | 23 | 193 | 12.9 | 14.5 | 0.00 | 0.00 | 0.00 | 53 | 1015.7 |
| 20260504233950 | 23 | 190 | 8.0 | 11.3 | 0.00 | 0.00 | 0.00 | 52 | 1015.5 |
| 20260504233445 | 23 | 211 | 8.0 | 12.9 | 0.00 | 0.00 | 0.00 | 52 | 1015.7 |
| 20260504232943 | 23 | 186 | 8.0 | 14.5 | 0.00 | 0.00 | 0.00 | 52 | 1015.8 |
| 20260504232440 | 23 | 203 | 9.7 | 16.1 | 0.00 | 0.00 | 0.00 | 50 | 1015.9 |
| 20260504231937 | 23 | 181 | 12.9 | 16.1 | 0.00 | 0.00 | 0.00 | 50 | 1015.9 |
| 20260504231433 | 23 | 218 | 8.0 | 12.9 | 0.00 | 0.00 | 0.00 | 51 | 1016.0 |
| 20260504230929 | 23 | 214 | 9.7 | 16.1 | 0.00 | 0.00 | 0.00 | 51 | 1015.9 |
| 20260504230426 | 23 | 200 | 9.7 | 14.5 | 0.00 | 0.00 | 0.00 | 50 | 1016.1 |
| 20260504225926 | 24 | 159 | 11.3 | 16.1 | 0.00 | 0.00 | 0.00 | 48 | 1016.2 |
| 20260504225422 | 24 | 229 | 8.0 | 14.5 | 0.00 | 0.00 | 0.00 | 49 | 1016.1 |
| 20260504224919 | 24 | 181 | 11.3 | 14.5 | 0.00 | 0.00 | 0.00 | 48 | 1016.3 |
| 20260504224415 | 24 | 179 | 9.7 | 14.5 | 0.00 | 0.00 | 0.00 | 47 | 1016.3 |
| 20260504223913 | 24 | 202 | 8.0 | 11.3 | 0.00 | 0.00 | 0.00 | 47 | 1016.3 |
| 20260504223408 | 24 | 196 | 8.0 | 14.5 | 0.00 | 0.00 | 0.00 | 48 | 1016.2 |
| 20260504222904 | 24 | 195 | 11.3 | 16.1 | 0.00 | 0.00 | 0.00 | 47 | 1016.2 |
| 20260504222402 | 24 | 192 | 12.9 | 14.5 | 0.00 | 0.00 | 0.00 | 47 | 1016.1 |
| 20260504221900 | 25 | 200 | 11.3 | 16.1 | 0.00 | 0.00 | 0.00 | 49 | 1016.2 |
| 20260504221356 | 24 | 184 | 9.7 | 12.9 | 0.00 | 0.00 | 0.00 | 49 | 1016.5 |
| 20260504220854 | 24 | 197 | 11.3 | 17.7 | 0.00 | 0.00 | 0.00 | 47 | 1016.3 |
| 20260504220350 | 24 | 199 | 12.9 | 17.7 | 0.00 | 0.00 | 0.00 | 47 | 1016.4 |
| 20260504215847 | 25 | 212 | 9.7 | 16.1 | 0.00 | 0.00 | 0.00 | 46 | 1016.5 |
| 20260504215343 | 25 | 205 | 8.0 | 16.1 | 0.00 | 0.00 | 0.00 | 46 | 1016.6 |
| 20260504214839 | 25 | 200 | 11.3 | 12.9 | 0.00 | 0.00 | 0.00 | 45 | 1016.4 |
| 20260504214337 | 25 | 177 | 14.5 | 16.1 | 0.00 | 0.00 | 0.00 | 45 | 1016.6 |
| 20260504213834 | 25 | 184 | 14.5 | 20.9 | 0.00 | 0.00 | 0.00 | 44 | 1016.4 |
| 20260504213329 | 25 | 214 | 9.7 | 11.3 | 0.00 | 0.00 | 0.00 | 44 | 1016.6 |
| 20260504212827 | 25 | 210 | 12.9 | 16.1 | 0.00 | 0.00 | 0.00 | 44 | 1017.2 |
| 20260504212323 | 25 | 236 | 11.3 | 14.5 | 0.00 | 0.00 | 0.00 | 46 | 1016.9 |
| 20260504211821 | 25 | 181 | 12.9 | 20.9 | 0.00 | 0.00 | 0.00 | 47 | 1017.0 |
| 20260504211317 | 24 | 180 | 12.9 | 16.1 | 0.00 | 0.00 | 0.00 | 46 | 1016.7 |
| 20260504210814 | 25 | 223 | 9.7 | 22.5 | 0.00 | 0.00 | 0.00 | 46 | 1016.8 |
| 20260504210311 | 25 | 207 | 14.5 | 20.9 | 0.00 | 0.00 | 0.00 | 45 | 1016.8 |
| 20260504205809 | 25 | 194 | 8.0 | 12.9 | 0.00 | 0.00 | 0.00 | 45 | 1016.9 |
| 20260504205306 | 24 | 190 | 9.7 | 20.9 | 0.00 | 0.00 | 0.00 | 47 | 1017.0 |
| 20260504204804 | 24 | 179 | 14.5 | 16.1 | 0.00 | 0.00 | 0.00 | 46 | 1016.9 |
| 20260504204302 | 25 | 168 | 12.9 | 20.9 | 0.00 | 0.00 | 0.00 | 44 | 1017.1 |
| 20260504203801 | 25 | 191 | 14.5 | 22.5 | 0.00 | 0.00 | 0.00 | 49 | 1017.4 |
| 20260504203258 | 25 | 192 | 8.0 | 11.3 | 0.00 | 0.00 | 0.00 | 46 | 1017.2 |
| 20260504202758 | 25 | 226 | 8.0 | 14.5 | 0.00 | 0.00 | 0.00 | 44 | 1017.3 |
| 20260504202256 | 25 | 191 | 14.5 | 20.9 | 0.00 | 0.00 | 0.00 | 46 | 1017.4 |
| 20260504201752 | 25 | 201 | 11.3 | 17.7 | 0.00 | 0.00 | 0.00 | 47 | 1017.5 |
| 20260504201250 | 25 | 200 | 14.5 | 17.7 | 0.00 | 0.00 | 0.00 | 45 | 1017.6 |
| 20260504200748 | 25 | 185 | 12.9 | 20.9 | 0.00 | 0.00 | 0.00 | 46 | 1017.8 |
| 20260504200243 | 25 | 190 | 8.0 | 14.5 | 0.00 | 0.00 | 0.00 | 45 | 1017.7 |
| 20260504195740 | 25 | 175 | 6.4 | 12.9 | 0.00 | 0.00 | 0.00 | 44 | 1017.8 |
| 20260504195236 | 25 | 177 | 9.7 | 16.1 | 0.00 | 0.00 | 0.00 | 43 | 1018.0 |
| 20260504194733 | 25 | 179 | 6.4 | 9.7 | 0.00 | 0.00 | 0.00 | 49 | 1018.1 |
| 20260504194229 | 25 | 182 | 12.9 | 20.9 | 0.00 | 0.00 | 0.00 | 47 | 1018.2 |
| 20260504193726 | 25 | 217 | 9.7 | 22.5 | 0.00 | 0.00 | 0.00 | 43 | 1018.2 |
| 20260504193223 | 25 | 218 | 9.7 | 17.7 | 0.00 | 0.00 | 0.00 | 46 | 1018.4 |
| 20260504192721 | 25 | 170 | 12.9 | 20.9 | 0.00 | 0.00 | 0.00 | 43 | 1018.2 |
| 20260504192219 | 25 | 187 | 14.5 | 17.7 | 0.00 | 0.00 | 0.00 | 44 | 1018.4 |
| 20260504191718 | 25 | 180 | 19.3 | 24.1 | 0.00 | 0.00 | 0.00 | 48 | 1018.5 |
| 20260504191214 | 25 | 239 | 9.7 | 25.7 | 0.00 | 0.00 | 0.00 | 47 | 1018.6 |
| 20260504190709 | 25 | 179 | 8.0 | 16.1 | 0.00 | 0.00 | 0.00 | 47 | 1018.6 |
| 20260504190206 | 25 | 222 | 8.0 | 17.7 | 0.00 | 0.00 | 0.00 | 46 | 1018.6 |
| 20260504185703 | 25 | 162 | 16.1 | 20.9 | 0.00 | 0.00 | 0.00 | 43 | 1018.8 |
| 20260504185159 | 24 | 186 | 24.1 | 27.4 | 0.00 | 0.00 | 0.00 | 45 | 1018.8 |
| 20260504184655 | 24 | 187 | 14.5 | 16.1 | 0.00 | 0.00 | 0.00 | 49 | 1018.8 |
| 20260504184150 | 24 | 161 | 11.3 | 16.1 | 0.00 | 0.00 | 0.00 | 46 | 1018.7 |
| 20260504183648 | 24 | 180 | 9.7 | 22.5 | 0.00 | 0.00 | 0.00 | 47 | 1018.8 |
| 20260504183145 | 25 | 172 | 19.3 | 24.1 | 0.00 | 0.00 | 0.00 | 46 | 1019.0 |
| 20260504182643 | 25 | 183 | 11.3 | 12.9 | 0.00 | 0.00 | 0.00 | 46 | 1018.7 |
| 20260504182140 | 24 | 179 | 12.9 | 17.7 | 0.00 | 0.00 | 0.00 | 44 | 1018.7 |
| 20260504181637 | 24 | 166 | 19.3 | 24.1 | 0.00 | 0.00 | 0.00 | 45 | 1018.9 |
| 20260504181135 | 25 | 180 | 16.1 | 17.7 | 0.00 | 0.00 | 0.00 | 44 | 1019.0 |
| 20260504180634 | 25 | 223 | 11.3 | 17.7 | 0.00 | 0.00 | 0.00 | 47 | 1018.9 |
| 20260504180132 | 24 | 172 | 8.0 | 14.5 | 0.00 | 0.00 | 0.00 | 44 | 1018.9 |
| 20260504175629 | 24 | 192 | 20.9 | 27.4 | 0.00 | 0.00 | 0.00 | 46 | 1019.4 |
| 20260504175125 | 25 | 190 | 16.1 | 17.7 | 0.00 | 0.00 | 0.00 | 45 | 1019.1 |
| 20260504174624 | 24 | 191 | 11.3 | 16.1 | 0.00 | 0.00 | 0.00 | 48 | 1019.4 |
| 20260504174120 | 24 | 190 | 14.5 | 16.1 | 0.00 | 0.00 | 0.00 | 46 | 1019.3 |
| 20260504173617 | 24 | 175 | 16.1 | 17.7 | 0.00 | 0.00 | 0.00 | 46 | 1019.6 |
| 20260504173115 | 24 | 176 | 17.7 | 17.7 | 0.00 | 0.00 | 0.00 | 44 | 1019.6 |
| 20260504172611 | 24 | 162 | 16.1 | 17.7 | 0.00 | 0.00 | 0.00 | 46 | 1019.5 |
| 20260504172108 | 24 | 205 | 8.0 | 11.3 | 0.00 | 0.00 | 0.00 | 46 | 1019.8 |
| 20260504171604 | 24 | 159 | 11.3 | 24.1 | 0.00 | 0.00 | 0.00 | 43 | 1019.6 |
| 20260504171101 | 24 | 165 | 11.3 | 16.1 | 0.00 | 0.00 | 0.00 | 45 | 1019.7 |
| 20260504170556 | 24 | 190 | 20.9 | 27.4 | 0.00 | 0.00 | 0.00 | 45 | 1019.8 |
| 20260504150941 | 22 | 174 | 11.3 | 14.5 | 0.00 | 0.00 | 0.00 | 46 | 1020.3 |
| 20260504150437 | 22 | 205 | 12.9 | 22.5 | 0.00 | 0.00 | 0.00 | 44 | 1020.2 |
| 20260504140904 | 21 | 192 | 9.7 | 14.5 | 0.00 | 0.00 | 0.00 | 59 | 1020.1 |
| 20260504140400 | 20 | 192 | 6.4 | 11.3 | 0.00 | 0.00 | 0.00 | 64 | 1020.0 |
| 20260504130325 | 15 | 145 | 0.0 | 0.0 | 0.00 | 0.00 | 0.00 | 99 | 1020.0 |
| 20260504120248 | 11 | 144 | 0.0 | 0.0 | 0.00 | 0.00 | 0.00 | 99 | 1019.7 |
| 20260504110716 | 10 | 144 | 0.0 | 0.0 | 0.00 | 0.00 | 0.00 | 98 | 1019.3 |
| 20260504110212 | 10 | 144 | 0.0 | 0.0 | 0.00 | 0.00 | 0.00 | 98 | 1019.3 |
| 20260504100136 | 11 | 144 | 0.0 | 0.0 | 0.00 | 0.00 | 0.00 | 98 | 1019.3 |
| 20260504081529 | 11 | 144 | 0.0 | 0.0 | 0.00 | 0.00 | 0.00 | 97 | 1020.0 |
| 20260504081025 | 12 | 144 | 0.0 | 0.0 | 0.00 | 0.00 | 0.00 | 97 | 1020.2 |
| 20260504080521 | 12 | 144 | 0.0 | 0.0 | 0.00 | 0.00 | 0.00 | 97 | 1020.3 |
| 20260504050334 | 13 | 144 | 0.0 | 0.0 | 0.00 | 0.00 | 0.00 | 90 | 1021.0 |
| 20260504045831 | 13 | 144 | 0.0 | 0.0 | 0.00 | 0.00 | 0.00 | 89 | 1021.0 |
| 20260504045326 | 13 | 144 | 0.0 | 0.0 | 0.00 | 0.00 | 0.00 | 88 | 1020.8 |
| 20260504044823 | 13 | 144 | 0.0 | 1.6 | 0.00 | 0.00 | 0.00 | 88 | 1021.0 |
| 20260504044321 | 13 | 144 | 0.0 | 0.0 | 0.00 | 0.00 | 0.00 | 87 | 1020.9 |
| 20260504043818 | 13 | 144 | 0.0 | 0.0 | 0.00 | 0.00 | 0.00 | 87 | 1021.1 |
| 20260504043315 | 14 | 144 | 0.0 | 0.0 | 0.00 | 0.00 | 0.00 | 86 | 1021.2 |
| 20260504042812 | 14 | 144 | 0.0 | 0.0 | 0.00 | 0.00 | 0.00 | 86 | 1021.4 |
| 20260504042308 | 14 | 144 | 1.6 | 1.6 | 0.00 | 0.00 | 0.00 | 87 | 1021.2 |
| 20260504041805 | 14 | 144 | 1.6 | 1.6 | 0.00 | 0.00 | 0.00 | 86 | 1021.5 |
| 20260504041301 | 14 | 144 | 0.0 | 0.0 | 0.00 | 0.00 | 0.00 | 87 | 1021.5 |
| 20260504040757 | 14 | 144 | 0.0 | 0.0 | 0.00 | 0.00 | 0.00 | 86 | 1021.5 |
| 20260504040255 | 14 | 144 | 0.0 | 0.0 | 0.00 | 0.00 | 0.00 | 84 | 1021.4 |
| 20260504035750 | 14 | 144 | 0.0 | 0.0 | 0.00 | 0.00 | 0.00 | 84 | 1021.6 |
| 20260504035248 | 15 | 144 | 0.0 | 0.0 | 0.00 | 0.00 | 0.00 | 83 | 1021.3 |
| 20260504034745 | 15 | 144 | 0.0 | 0.0 | 0.00 | 0.00 | 0.00 | 84 | 1021.3 |
| 20260504034242 | 15 | 144 | 0.0 | 0.0 | 0.00 | 0.00 | 0.00 | 82 | 1021.3 |
| 20260504033740 | 15 | 144 | 0.0 | 0.0 | 0.00 | 0.00 | 0.00 | 81 | 1021.4 |
| 20260504033237 | 15 | 144 | 1.6 | 1.6 | 0.00 | 0.00 | 0.00 | 83 | 1021.3 |
| 20260504032734 | 15 | 144 | 0.0 | 0.0 | 0.00 | 0.00 | 0.00 | 79 | 1021.7 |
| 20260504032231 | 15 | 145 | 0.0 | 0.0 | 0.00 | 0.00 | 0.00 | 79 | 1021.4 |
| 20260504031728 | 16 | 145 | 0.0 | 0.0 | 0.00 | 0.00 | 0.00 | 78 | 1021.3 |
| 20260504031225 | 16 | 145 | 0.0 | 0.0 | 0.00 | 0.00 | 0.00 | 76 | 1021.4 |
| 20260504030721 | 16 | 145 | 1.6 | 1.6 | 0.00 | 0.00 | 0.00 | 74 | 1021.4 |
| 20260504030219 | 16 | 155 | 1.6 | 3.2 | 0.00 | 0.00 | 0.00 | 72 | 1021.6 |
| 20260504025715 | 17 | 145 | 1.6 | 3.2 | 0.00 | 0.00 | 0.00 | 73 | 1021.3 |
| 20260504025211 | 17 | 145 | 3.2 | 3.2 | 0.00 | 0.00 | 0.00 | 70 | 1021.4 |
| 20260504024709 | 16 | 294 | 1.6 | 3.2 | 0.00 | 0.00 | 0.00 | 74 | 1021.4 |
| 20260504024205 | 16 | 296 | 0.0 | 1.6 | 0.00 | 0.00 | 0.00 | 74 | 1021.4 |
| 20260504023702 | 16 | 294 | 1.6 | 1.6 | 0.00 | 0.00 | 0.00 | 77 | 1021.5 |